When you browse on this site, cookies collect data to enhance your experience and personalize the content and advertising you see.
Visit our Privacy Policy to learn more. By continuing to use the site, you agree to this use of cookies and data.
  • In Portugal
  • List of Countries
  • For 7 days
  • Water Temperature
  • Weather Map
  • Weather Widgets
  • user-avatar
    Login

    Hourly Weather Vanadzor

    Today, 23 October, Wednesday

    Time Temperature Precipitation Wind Pressure Humidity
    00:00 +8°C° 0 mm 1 mps 637 mmHg 91%
    01:00 +7°C° 0 mm 1 mps 637 mmHg 91%
    02:00 +6°C° 0 mm 0 mps 636 mmHg 91%
    03:00 +6°C° 0 mm 1 mps 636 mmHg 89%
    04:00 +5°C° 0 mm 0 mps 636 mmHg 88%
    05:00 +5°C° 0 mm 0 mps 636 mmHg 86%
    06:00 +5°C° 0 mm 0 mps 636 mmHg 84%
    07:00 +7°C° 0 mm 0 mps 637 mmHg 76%
    08:00 +9°C° 0 mm 0 mps 638 mmHg 67%
    09:00 +11°C° 0 mm 0 mps 639 mmHg 58%
    10:00 +13°C° 0 mm 1 mps 639 mmHg 53%
    11:00 +14°C° 0 mm 1 mps 639 mmHg 48%
    12:00 +15°C° 0 mm 2 mps 639 mmHg 43%
    13:00 +15°C° 0 mm 2 mps 639 mmHg 43%
    14:00 +16°C° 0 mm 2 mps 638 mmHg 43%
    15:00 +16°C° 0 mm 2 mps 638 mmHg 42%
    16:00 +14°C° 0 mm 1 mps 638 mmHg 51%
    17:00 +12°C° 0 mm 1 mps 637 mmHg 60%
    18:00 +10°C° 0 mm 1 mps 637 mmHg 69%
    19:00 +9°C° 0 mm 1 mps 637 mmHg 73%
    20:00 +9°C° 0 mm 1 mps 637 mmHg 76%
    21:00 +8°C° 0 mm 1 mps 637 mmHg 79%
    22:00 +7°C° 0 mm 0 mps 637 mmHg 81%
    23:00 +6°C° 0 mm 0 mps 637 mmHg 84%

    Tomorrow, 24 October, Thursday

    Time Temperature Precipitation Wind Pressure Humidity
    00:00 +6°C° 0 mm 0 mps 637 mmHg 86%
    01:00 +6°C° 0 mm 0 mps 637 mmHg 87%
    02:00 +5°C° 0 mm 0 mps 636 mmHg 87%
    03:00 +5°C° 0 mm 0 mps 636 mmHg 87%
    04:00 +5°C° 0 mm 0 mps 636 mmHg 87%
    05:00 +5°C° 0 mm 0 mps 636 mmHg 86%
    06:00 +4°C° 0 mm 0 mps 636 mmHg 85%
    07:00 +6°C° 0 mm 0 mps 637 mmHg 76%
    08:00 +9°C° 0 mm 1 mps 638 mmHg 66%
    09:00 +11°C° 0 mm 1 mps 638 mmHg 57%
    10:00 +13°C° 0 mm 1 mps 639 mmHg 53%
    11:00 +14°C° 0 mm 1 mps 639 mmHg 49%
    12:00 +15°C° 0 mm 1 mps 639 mmHg 45%
    13:00 +15°C° 0 mm 2 mps 639 mmHg 45%
    14:00 +15°C° 0 mm 2 mps 638 mmHg 45%
    15:00 +15°C° 0 mm 2 mps 638 mmHg 46%
    16:00 +13°C° 0 mm 1 mps 638 mmHg 55%
    17:00 +12°C° 0 mm 1 mps 637 mmHg 64%
    18:00 +10°C° 0 mm 1 mps 637 mmHg 74%
    19:00 +9°C° 0 mm 1 mps 637 mmHg 77%
    20:00 +8°C° 0 mm 0 mps 637 mmHg 80%
    21:00 +7°C° 0 mm 0 mps 637 mmHg 84%
    22:00 +7°C° 0 mm 0 mps 637 mmHg 85%
    23:00 +7°C° 0 mm 0 mps 637 mmHg 86%

    Day after tomorrow, 25 October, Friday

    Time Temperature Precipitation Wind Pressure Humidity
    00:00 +6°C° 0 mm 0 mps 636 mmHg 87%
    01:00 +6°C° 0 mm 0 mps 636 mmHg 86%
    02:00 +6°C° 0 mm 0 mps 636 mmHg 86%
    03:00 +6°C° 0 mm 0 mps 636 mmHg 85%
    04:00 +6°C° 0 mm 0 mps 636 mmHg 84%
    05:00 +5°C° 0 mm 0 mps 636 mmHg 84%
    06:00 +5°C° 0 mm 0 mps 636 mmHg 83%
    07:00 +7°C° 0 mm 0 mps 636 mmHg 75%
    08:00 +9°C° 0 mm 0 mps 637 mmHg 67%
    09:00 +11°C° 0 mm 0 mps 638 mmHg 59%
    10:00 +14°C° 0 mm 1 mps 638 mmHg 54%
    11:00 +15°C° 0 mm 1 mps 638 mmHg 49%
    12:00 +16°C° 0 mm 1 mps 638 mmHg 44%
    13:00 +16°C° 0 mm 1 mps 638 mmHg 45%
    14:00 +16°C° 0 mm 2 mps 637 mmHg 46%
    15:00 +16°C° 0 mm 2 mps 637 mmHg 47%
    16:00 +14°C° 0 mm 1 mps 636 mmHg 58%
    17:00 +12°C° 0 mm 1 mps 636 mmHg 69%
    18:00 +10°C° 0 mm 1 mps 635 mmHg 80%
    19:00 +9°C° 0 mm 0 mps 635 mmHg 82%
    20:00 +8°C° 0 mm 0 mps 635 mmHg 85%
    21:00 +8°C° 0 mm 0 mps 635 mmHg 87%
    22:00 +7°C° 0 mm 0 mps 635 mmHg 88%
    23:00 +7°C° 0 mm 0 mps 635 mmHg 89%

    26 October, Saturday

    Time Temperature Precipitation Wind Pressure Humidity
    00:00 +7°C° 0 mm 0 mps 635 mmHg 90%
    01:00 +6°C° 0 mm 0 mps 635 mmHg 91%
    02:00 +6°C° 0 mm 0 mps 635 mmHg 91%
    03:00 +6°C° 0 mm 0 mps 635 mmHg 92%
    04:00 +6°C° 0 mm 0 mps 635 mmHg 91%
    05:00 +6°C° 0 mm 0 mps 635 mmHg 90%
    06:00 +6°C° 0 mm 0 mps 635 mmHg 90%
    07:00 +8°C° 0 mm 1 mps 635 mmHg 82%
    08:00 +10°C° 0 mm 1 mps 636 mmHg 75%
    09:00 +12°C° 0 mm 1 mps 637 mmHg 67%
    10:00 +13°C° 0 mm 1 mps 637 mmHg 63%
    11:00 +14°C° 0 mm 2 mps 637 mmHg 58%
    12:00 +15°C° 0 mm 2 mps 637 mmHg 54%
    13:00 +15°C° 0.2 mm 2 mps 637 mmHg 55%
    14:00 +15°C° 0.2 mm 2 mps 637 mmHg 56%
    15:00 +15°C° 0.2 mm 2 mps 636 mmHg 57%
    16:00 +13°C° 0.1 mm 2 mps 636 mmHg 67%
    17:00 +11°C° 0.1 mm 1 mps 636 mmHg 77%
    18:00 +10°C° 0.1 mm 1 mps 635 mmHg 87%
    19:00 +9°C° 0 mm 1 mps 636 mmHg 89%
    20:00 +9°C° 0 mm 1 mps 636 mmHg 92%
    21:00 +8°C° 0 mm 1 mps 636 mmHg 94%
    22:00 +8°C° 0 mm 1 mps 636 mmHg 94%
    23:00 +8°C° 0 mm 1 mps 636 mmHg 94%

    27 October, Sunday

    Time Temperature Precipitation Wind Pressure Humidity
    00:00 +8°C° 0 mm 1 mps 636 mmHg 94%
    01:00 +8°C° 0 mm 1 mps 636 mmHg 93%
    02:00 +7°C° 0 mm 1 mps 636 mmHg 92%
    03:00 +7°C° 0 mm 1 mps 636 mmHg 91%
    04:00 +6°C° 0 mm 0 mps 636 mmHg 90%
    05:00 +6°C° 0 mm 0 mps 636 mmHg 89%
    06:00 +5°C° 0 mm 0 mps 636 mmHg 89%
    07:00 +7°C° 0 mm 0 mps 636 mmHg 80%
    08:00 +9°C° 0 mm 0 mps 637 mmHg 72%
    09:00 +10°C° 0 mm 0 mps 638 mmHg 63%
    10:00 +13°C° 0 mm 1 mps 638 mmHg 57%
    11:00 +14°C° 0 mm 1 mps 638 mmHg 51%
    12:00 +15°C° 0 mm 1 mps 639 mmHg 45%
    13:00 +15°C° 0 mm 1 mps 638 mmHg 44%
    14:00 +16°C° 0 mm 2 mps 638 mmHg 43%
    15:00 +16°C° 0 mm 2 mps 638 mmHg 42%
    16:00 +14°C° 0 mm 1 mps 637 mmHg 50%
    17:00 +12°C° 0 mm 1 mps 637 mmHg 58%
    18:00 +10°C° 0 mm 1 mps 637 mmHg 66%
    19:00 +9°C° 0 mm 0 mps 637 mmHg 68%
    20:00 +8°C° 0 mm 0 mps 637 mmHg 70%
    21:00 +8°C° 0 mm 0 mps 637 mmHg 71%
    22:00 +8°C° 0 mm 0 mps 637 mmHg 73%
    23:00 +7°C° 0 mm 0 mps 637 mmHg 75%

    28 October, Monday

    Time Temperature Precipitation Wind Pressure Humidity
    00:00 +8°C° 0 mm 1 mps 637 mmHg 77%
    01:00 +8°C° 0 mm 1 mps 637 mmHg 76%
    02:00 +7°C° 0 mm 1 mps 637 mmHg 76%
    03:00 +7°C° 0 mm 1 mps 637 mmHg 75%
    04:00 +7°C° 0 mm 1 mps 637 mmHg 73%
    05:00 +7°C° 0 mm 1 mps 637 mmHg 71%
    06:00 +7°C° 0 mm 1 mps 637 mmHg 69%
    07:00 +9°C° 0 mm 1 mps 638 mmHg 62%
    08:00 +11°C° 0 mm 1 mps 638 mmHg 55%
    09:00 +13°C° 0 mm 1 mps 639 mmHg 47%
    10:00 +14°C° 0 mm 1 mps 639 mmHg 43%
    11:00 +16°C° 0 mm 1 mps 639 mmHg 39%
    12:00 +18°C° 0 mm 1 mps 640 mmHg 35%
    13:00 +18°C° 0 mm 1 mps 639 mmHg 36%
    14:00 +18°C° 0 mm 1 mps 639 mmHg 36%
    15:00 +18°C° 0 mm 1 mps 639 mmHg 36%
    16:00 +15°C° 0 mm 1 mps 638 mmHg 45%
    17:00 +13°C° 0 mm 1 mps 637 mmHg 54%
    18:00 +10°C° 0 mm 0 mps 637 mmHg 63%
    19:00 +10°C° 0 mm 0 mps 637 mmHg 63%
    20:00 +10°C° 0 mm 1 mps 637 mmHg 63%
    21:00 +10°C° 0 mm 1 mps 637 mmHg 63%
    22:00 +10°C° 0 mm 1 mps 637 mmHg 61%
    23:00 +9°C° 0 mm 1 mps 637 mmHg 59%

    29 October, Tuesday

    Time Temperature Precipitation Wind Pressure Humidity
    00:00 +9°C° 0 mm 1 mps 636 mmHg 57%
    01:00 +9°C° 0 mm 1 mps 636 mmHg 57%
    02:00 +8°C° 0 mm 1 mps 636 mmHg 57%
    03:00 +8°C° 0 mm 1 mps 636 mmHg 57%
    04:00 +8°C° 0 mm 1 mps 635 mmHg 57%
    05:00 +7°C° 0 mm 2 mps 635 mmHg 57%
    06:00 +7°C° 0 mm 2 mps 635 mmHg 58%
    07:00 +9°C° 0 mm 2 mps 636 mmHg 53%
    08:00 +12°C° 0 mm 2 mps 636 mmHg 48%
    09:00 +14°C° 0 mm 2 mps 637 mmHg 44%
    10:00 +15°C° 0 mm 2 mps 637 mmHg 40%
    11:00 +16°C° 0 mm 2 mps 637 mmHg 37%
    12:00 +18°C° 0 mm 2 mps 637 mmHg 33%
    13:00 +18°C° 0 mm 2 mps 637 mmHg 33%
    14:00 +18°C° 0 mm 2 mps 636 mmHg 33%
    15:00 +18°C° 0 mm 2 mps 636 mmHg 32%
    16:00 +16°C° 0 mm 2 mps 635 mmHg 38%
    17:00 +14°C° 0 mm 1 mps 635 mmHg 44%
    18:00 +12°C° 0 mm 1 mps 634 mmHg 50%
    19:00 +12°C° 0 mm 1 mps 634 mmHg 51%
    20:00 +11°C° 0 mm 1 mps 634 mmHg 52%
    21:00 +11°C° 0 mm 1 mps 635 mmHg 52%
    22:00 +11°C° 0 mm 1 mps 634 mmHg 52%
    23:00 +10°C° 0 mm 1 mps 634 mmHg 52%
    Show more